Location: Aldenham
(51.6667°N, 0.3500°W)
Time: 17:24:45
(UTC+00:00)

Explorer 7 - Pass Details

Date: 17 February 2026
Orbit: 430 x 542 km, 50.2° (Epoch: 8 March)

Event Time Altitude Azimuth Distance (km) Brightness Sun altitude
Rises 21:47:04 0° 275° (W) 2,583 10.9 -40.1°
Enters shadow 21:47:14 - 274° (W) 2,529 10.8 -40.1°
Reaches altitude 10° 21:50:42 10° 239° (WSW) 1,728 - -40.5°
Maximum altitude 21:51:51 11° 222° (SW) 1,668 - -40.7°
Drops below altitude 10° 21:53:01 10° 205° (SSW) 1,744 - -40.8°
Sets 21:56:45 0° 170° (S) 2,654 - -41.2°
